Regional Weather Roundup
Issued by NWS

Home | Current Version | Previous Version | Text Only | Print | Product List | Glossary Off
Versions: 1 2 3 4 5 6 7 8 9 10 11 12 13 14 15 16 17 18 19 20 21 22 23 24 25 26 27 28 29 30 31 32 33 34 35 36 37 38 39 40 41 42 43 44 45 46 47 48 49 50

556
ASUS43 KMKX 122200
RWRWI

WISCONSIN REGIONAL WEATHER ROUNDUP
NATIONAL WEATHER SERVICE MILWAUKEE/SULLIVAN WI
400 PM CST TUE DEC 12 2017

NOTE: "FAIR" INDICATES FEW OR NO CLOUDS BELOW 12,000 FEET WITH NO
SIGNIFICANT WEATHER AND/OR OBSTRUCTIONS TO VISIBILITY.

WIZ001-002-006>008-014>016-023>028-122300-
NORTHWEST WISCONSIN

CITY           SKY/WX    TMP DP  RH WIND       PRES   REMARKS
SUPERIOR ARPT  FLURRIES  15   7  72 CALM      29.95F
ASHLAND        CLOUDY    12   1  61 SW6       29.97F WCI   3
HAYWARD        FLURRIES  12   1  61 S7        29.93F WCI   1
SIREN          FLURRIES  15   7  71 S5        29.95F WCI   7
CUMBERLAND     FLURRIES  12   3  67 SW6       29.95F WCI   3
RICE LAKE      FLURRIES  14   4  64 S8        29.98F WCI   3
CHETEK         CLOUDY    13   1  57 SW5       29.98F WCI   6
LADYSMITH      CLOUDY    15  -2  48 SW6       29.98F WCI   6
EAU CLAIRE     NOT AVBL
MENOMONIE      FLURRIES  16   4  58 SW7       30.01F WCI   6
NEW RICHMOND   CLOUDY    15   7  71 S9        29.97F WCI   3
OSCEOLA        CLOUDY    16   9  74 SE8       30.00F WCI   5
$$

WIZ003>005-009-010-017-018-122300-
NORTH CENTRAL WISCONSIN

CITY           SKY/WX    TMP DP  RH WIND       PRES   REMARKS
MANITOWISH WTR CLOUDY     7   0  72 CALM      29.90F
ARBOR VITAE    CLEAR     11   2  67 CALM      29.90F
WOODRUFF       CLEAR     11   2  67 CALM      29.90F
RHINELANDER    CLEAR     10  -1  61 NW3       29.90F
EAGLE RIVER    PTCLDY    10   0  63 W6        29.88F WCI   0
LAND O LAKES   CLOUDY    11   4  75 W3        29.90F
PHILLIPS       CLOUDY    11  -3  52 CALM      29.92F
TOMAHAWK       PTCLDY    11  -3  55 W6        29.93F WCI   1
MEDFORD        CLEAR     11  -2  54 CALM      29.93F
MERRILL        CLEAR     13  -2  49 W3        29.95F
$$

WIZ029-030-035-036-043>047-122300-
CENTRAL WISCONSIN

CITY           SKY/WX    TMP DP  RH WIND       PRES   REMARKS
WAUSAU         CLEAR     12   0  58 W9        29.94F WCI   0
MOSINEE        PTCLDY    12   0  57 W7        29.97F WCI   2
MARSHFIELD     CLOUDY    11  -2  56 W5        29.95F WCI   3
STEVENS POINT  CLEAR     12  -2  54 W7        29.98F WCI   1
WAUPACA        CLEAR     17   1  50 W12       30.00F WCI   4
WAUTOMA        CLEAR     15   0  51 NW8       30.01F WCI   4
WISC RAPIDS    CLEAR     14  -1  51 W8        30.00F WCI   3
CAMP DOUGLAS   MOCLDY    16   0  48 W3        30.01F
$$

WIZ011>013-019>022-031-037>040-048>050-122300-
NORTHEAST WISCONSIN

CITY           SKY/WX    TMP DP  RH WIND       PRES   REMARKS
ANTIGO         CLEAR     12   0  60 NW7       29.92F WCI   1
SHAWANO        CLEAR     19   4  53 CALM      29.98F
OCONTO         CLOUDY    17   5  59 W8        29.98F WCI   6
STURGEON BAY   CLOUDY    16   5  62 NW9       29.96F WCI   4
GREEN BAY      PTCLDY    17   3  54 NW12      29.99F WCI   4
MANITOWOC      PTCLDY    16   4  59 NW8       30.00R WCI   5
APPLETON       PTCLDY   N/A N/A N/A W12       29.97S
CLINTONVILLE   CLEAR     18   0  45 NW7       29.98F WCI   8
OSHKOSH        CLEAR     16   2  54 NW9       29.98F WCI   4
$$

WIZ032>034-041-042-053>061-122300-
SOUTHWEST WISCONSIN

CITY           SKY/WX    TMP DP  RH WIND       PRES   REMARKS
LA CROSSE      CLOUDY    21   4  47 CALM      30.04F
SPARTA         CLOUDY    18   0  46 W3        30.04F
VIROQUA        CLOUDY    18   4  55 W8        30.00F WCI   7
BOSCOBEL       CLOUDY    22   2  42 CALM      30.06F
PRAIRIE DU CHI CLOUDY    23   5  46 W5        30.06F WCI  17
PLATTEVILLE    CLOUDY    22   6  49 W13       30.04F WCI  10
$$

WIZ056-057-062-063-064-067-068-122300-
SOUTH CENTRAL WISCONSIN

CITY           SKY/WX    TMP DP  RH WIND       PRES   REMARKS
REEDSBURG      PTCLDY    17  -2  43 W9        30.03S WCI   6
BARABOO/DELLS  PTCLDY    17  -3  40 W9        30.02S WCI   6
LONE ROCK      NOT AVBL
MINERAL POINT  CLOUDY    23   3  42 W7        30.02S WCI  15
MADISON        PTCLDY    18   0  45 NW6       30.01F WCI  10
MIDDLETON      CLEAR     20   3  48 W9        30.03R WCI   9
WATERTOWN      CLEAR     18   2  48 W9        30.01F WCI   7
MONROE         CLOUDY    21   1  42 W14       30.01S WCI   8
JANESVILLE     MOCLDY    23  -6  28 NW9       30.02S WCI  13
$$

WIZ051-052-058>065-066-070>072-122300-
SOUTHEAST WISCONSIN

CITY           SKY/WX    TMP DP  RH WIND       PRES   REMARKS
MILWAUKEE      PTCLDY    19   3  49 NW12      30.01S WCI   7
WAUKESHA       CLEAR     16   3  57 W14G22    30.01S WCI   1
MILWAUKEE/TIMM CLEAR     18   0  45 W13G20    30.01S WCI   4
RACINE         CLEAR     19   4  51 NW9       30.03R WCI   8
BURLINGTON     PTCLDY    31  20  64 W10       30.01F WCI  22
KENOSHA        CLEAR     20   2  45 NW8       30.01S WCI  10
FOND DU LAC    CLEAR     17   0  47 NW12      29.99F WCI   4
SHEBOYGAN      PTCLDY    16   6  65 W8        29.99S WCI   5
WEST BEND      CLEAR     18   3  53 W14       29.99S WCI   4
JUNEAU         CLEAR     17   1  51 W7        30.01F WCI   7
$$

LSZ147-162-122300-
LAKE SUPERIOR

STATION/POSITION TIME  TEMP    WIND        PRES    WAVE
                       AIR SEA DIR/SP/G            HT/PER
                 (UTC) (F)     (DEG/KT/KT) (MB)    (FT/S)
DEVILS ISLAND    2100   15     240/  6/  8 1016.5F
SAXON HARBOR     2140   13                 1014.9F
$$

LMZ867-665-643>646-122300-
LAKE MICHIGAN

STATION/POSITION TIME  TEMP    WIND        PRES    WAVE
                       AIR SEA DIR/SP/G            HT/PER
                 (UTC) (F)     (DEG/KT/KT) (MB)    (FT/S)
NORTHPORT PIER   2137   17     320/ 15/ 22 1014.2F
KEWAUNEE LAKESHO 2130   18     290/  7/ 11 1014.4S
SHEBOYGAN LAKESH 2100   17     280/ 13/ 16 1017.0R
PORT WASHINGTON  2140   18     300/  8/ 13 1017.3S
MILWAUKEE LAKESH 2130   19     300/ 13/ 16   N/A
KENOSHA   LAKESH 2100   20     310/ 12/ 20 1016.3
$$

TC  - TEMPERATURE IN CELSIUS
VSB - VISIBILITY IN STATUTE MILES
WCI - WIND CHILL INDEX
HX  - HEAT INDEX





USA.gov is the U.S. government's official web portal to all federal, state and local government web resources and services.